This demonstration page uses our WeatherBlox Daily Observations layout. Learn more.

Left ArrowRight Arrow

Hourly Observations for April 5, 2022

Temp ( °F °C ) Dew Point ( °F °C ) Humidity (%) Winds ( mph kmh ) Pressure ( in mb ) Visibility ( mi km ) Precip ( " mm )
12:52 am 00:52 Mostly Cloudy 54 12.2 52 11.1 93 93 SE 6 9 29.71 1006 10 16 0.00 0.00
1:52 am 01:52 Mostly Cloudy 54 12.2 52 11.1 93 93 SSE 9 15 29.69 1006 10 16 0.00 0.00
2:52 am 02:52 Cloudy 54 12.2 51 10.6 90 90 SSE 16 26 29.65 1004 10 16 0.00 0.00
3:52 am 03:52 Clear 53 11.7 51 10.6 93 93 SSE 13 20 29.62 1003 10 16 0.00 0.00
4:52 am 04:52 Partly Cloudy 53 11.7 50 10 89 89 SSE 12 19 29.60 1003 10 16 0.00 0.00
5:52 am 05:52 Cloudy 53 11.7 50 10 89 89 SSE 12 19 29.60 1003 10 16 0.00 0.00
6:52 am 06:52 Cloudy 53 11.7 50 10 89 89 SSE 9 15 29.62 1003 10 16 0.00 0.00
7:52 am 07:52 Cloudy 53 11.7 50 10 89 89 SE 9 15 29.61 1003 10 16 0.00 0.00
8:52 am 08:52 Sunny 56 13.3 51 10.6 84 84 SSE 14 22 29.59 1002 10 16 0.00 0.00
9:52 am 09:52 Sunny 60 15.6 52 11.1 75 75 S 13 20 29.57 1002 10 16 0.00 0.00
10:52 am 10:52 Partly Cloudy 63 17.2 53 11.7 70 70 SSW 14 22 29.56 1001 10 16 0.00 0.00
11:52 am 11:52 Cloudy 63 17.2 54 12.2 73 73 S 15 24 29.55 1001 10 16 0.00 0.00
12:52 pm 12:52 Cloudy 67 19.4 55 12.8 66 66 SSW 18 30 29.52 1000 10 16 0.00 0.00
1:07 pm 13:07 Mostly Cloudy 67 19.4 55 12.8 66 66 SSW 13 20 29.50 999 10 16 0.00 0.00
1:52 pm 13:52 Partly Cloudy 69 20.6 55 12.8 61 61 S 13 20 29.48 998 10 16 0.00 0.00
2:52 pm 14:52 Mostly Sunny 72 22.2 55 12.8 55 55 S 16 26 29.46 998 10 16 0.00 0.00
3:52 pm 15:52 Mostly Sunny 73 22.8 53 11.7 50 50 S 17 28 29.42 996 10 16 0.00 0.00
4:52 pm 16:52 Sunny 75 23.9 53 11.7 46 46 SSW 16 26 29.40 996 10 16 0.00 0.00
5:52 pm 17:52 Sunny 74 23.3 53 11.7 48 48 S 12 19 29.40 996 10 16 0.00 0.00
6:52 pm 18:52 Mostly Sunny 70 21.1 53 11.7 55 55 SSW 9 15 29.43 997 10 16 0.00 0.00
7:52 pm 19:52 Mostly Cloudy 67 19.4 54 12.2 63 63 SW 8 13 29.46 998 10 16 0.00 0.00
8:52 pm 20:52 Cloudy with Heavy Rain 64 17.8 59 15 84 84 W 8 13 29.51 999 4 6 0.00 0.00
9:52 pm 21:52 Mostly Cloudy 61 16.1 56 13.3 84 84 NW 13 20 29.53 1000 8 13 0.08 2.03
10:47 pm 22:47 Cloudy 59 15 54 12 82 82 N 20 31 29.58 1002 10 16 0.00 0.00
10:52 pm 22:52 Cloudy 59 15 54 12.2 83 83 N 25 41 29.58 1002 10 16 0.00 0.00
11:27 pm 23:27 Cloudy 57 13.9 46 7.8 67 67 N 20 31 29.61 1003 10 16 0.00 0.00
11:52 pm 23:52 Cloudy 55 12.8 43 6.1 64 64 NNW 22 35 29.61 1003 10 16 0.00 0.00

Powered by AerisWeather